H1 CPF 2 NER 2021 1 16 9 016 01 glonass132 H2 1401201 9132 39620 2021 1 16 0 0 0 2021 1 19 23 45 0 900 1 1 0 0 0 1 H9 10 0 59230 0.00000 0 6287876.400 -17510225.533 17444441.631 10 0 59230 900.00000 0 6441282.622 -15236547.230 19417823.196 10 0 59230 1800.00000 0 6808932.056 -12766373.223 21014105.170 10 0 59230 2700.00000 0 7406778.165 -10166469.732 22202531.623 10 0 59230 3600.00000 0 8238314.021 -7506780.890 22960285.768 10 0 59230 4500.00000 0 9294285.404 -4857712.200 23272911.374 10 0 59230 5400.00000 0 10552952.245 -2287411.318 23134572.543 10 0 59230 6300.00000 0 11980886.735 140842.279 22548148.593 10 0 59230 7200.00000 0 13534274.125 2371032.256 21525163.600 10 0 59230 8100.00000 0 15160661.782 4356487.994 20085553.092 10 0 59230 9000.00000 0 16801083.847 6061570.919 18257272.952 10 0 59230 9900.00000 0 18392473.592 7462897.006 16075758.231 10 0 59230 10800.00000 0 19870263.931 8550047.045 13583242.013 10 0 59230 11700.00000 0 21171068.841 9325737.125 10827946.700 10 0 59230 12600.00000 0 22235335.012 9805443.708 7863162.459 10 0 59230 13500.00000 0 23009854.107 10016500.043 4746229.392 10 0 59230 14400.00000 0 23450031.499 9996702.234 1537441.885 10 0 59230 15300.00000 0 23521816.990 9792483.415 -1701104.833 10 0 59230 16200.00000 0 23203216.685 9456732.436 -4906704.710 10 0 59230 17100.00000 0 22485322.139 9046348.233 -8017245.399 10 0 59230 18000.00000 0 21372812.588 8619632.249 -10972404.583 10 0 59230 18900.00000 0 19883907.707 8233628.274 -13714815.480 10 0 59230 19800.00000 0 18049770.950 7941521.582 -16191179.220 10 0 59230 20700.00000 0 15913386.358 7790207.153 -18353302.489 10 0 59230 21600.00000 0 13527953.609 7818130.040 -20159040.217 10 0 59230 22500.00000 0 10954866.209 8053489.963 -21573124.616 10 0 59230 23400.00000 0 8261355.438 8512887.269 -22567863.842 10 0 59230 24300.00000 0 5517896.736 9200469.161 -23123695.960 10 0 59230 25200.00000 0 2795485.570 10107614.293 -23229586.433 10 0 59230 26100.00000 0 162895.728 11213171.275 -22883260.277 10 0 59230 27000.00000 0 -2315965.892 12484243.226 -22091263.102 10 0 59230 27900.00000 0 -4584497.575 13877487.353 -20868848.571 10 0 59230 28800.00000 0 -6595531.861 15340876.340 -19239693.209 10 0 59230 29700.00000 0 -8313065.977 16815848.415 -17235443.086 10 0 59230 30600.00000 0 -9713520.762 18239755.864 -14895100.353 10 0 59230 31500.00000 0 -10786475.002 19548508.525 -12264261.242 10 0 59230 32400.00000 0 -11534844.567 20679299.900 -9394220.405 10 0 59230 33300.00000 0 -11974499.416 21573299.592 -6340959.582 10 0 59230 34200.00000 0 -12133335.788 22178196.814 -3164041.394 10 0 59230 35100.00000 0 -12049844.428 22450485.997 74568.733 10 0 59230 36000.00000 0 -11771237.516 22357396.567 3311727.883 10 0 59230 36900.00000 0 -11351215.878 21878384.403 6484362.383 10 0 59230 37800.00000 0 -10847473.482 21006121.531 9530709.931 10 0 59230 38700.00000 0 -10319047.154 19746942.378 12391531.453 10 0 59230 39600.00000 0 -9823625.627 18120728.404 15011267.904 10 0 59230 40500.00000 0 -9414933.146 16160236.962 17339119.046 10 0 59230 41400.00000 0 -9140298.949 13909903.782 19330023.276 10 0 59230 42300.00000 0 -9038515.286 11424170.541 20945520.071 10 0 59230 43200.00000 0 -9138073.708 8765408.525 22154479.547 10 0 59230 44100.00000 0 -9455852.837 6001525.616 22933686.549 10 0 59230 45000.00000 0 -9996311.378 3203356.529 23268269.746 10 0 59230 45900.00000 0 -10751218.813 441944.257 23151969.334 10 0 59230 46800.00000 0 -11699933.702 -2214175.503 22587239.895 10 0 59230 47700.00000 0 -12810216.884 -4701575.898 21585187.921 10 0 59230 48600.00000 0 -14039544.905 -6964320.690 20165346.299 10 0 59230 49500.00000 0 -15336868.667 -8956029.939 18355290.717 10 0 59230 50400.00000 0 -16644744.042 -10641546.286 16190105.588 10 0 59230 51300.00000 0 -17901746.221 -11998135.091 13711709.475 10 0 59230 52200.00000 0 -19045067.870 -13016170.666 10968052.327 10 0 59230 53100.00000 0 -20013193.614 -13699281.684 8012199.092 10 0 59230 54000.00000 0 -20748540.081 -14063950.985 4901316.251 10 0 59230 54900.00000 0 -21199951.910 -14138587.241 1695579.543 10 0 59230 55800.00000 0 -21324949.735 -13962107.536 -1542977.066 10 0 59230 56700.00000 0 -21091636.052 -13582090.164 -4751650.105 10 0 59230 57600.00000 0 -20480178.659 -13052574.747 -7868270.886 10 0 59230 58500.00000 0 -19483808.500 -12431601.517 -10832402.733 10 0 59230 59400.00000 0 -18109288.634 -11778592.704 -13586508.483 10 0 59230 60300.00000 0 -16376832.711 -11151685.804 -16077065.920 10 0 59230 61200.00000 0 -14319474.181 -10605130.815 -18255609.525 10 0 59230 62100.00000 0 -11981910.203 -10186861.256 -20079678.195 10 0 59230 63000.00000 0 -9418866.102 -9936341.817 -21513650.208 10 0 59230 63900.00000 0 -6693046.485 -9882784.317 -22529448.587 10 0 59230 64800.00000 0 -3872756.465 -10043808.459 -23107102.425 10 0 59230 65700.00000 0 -1029290.569 -10424605.476 -23235152.301 10 0 59230 66600.00000 0 1765802.854 -11017641.767 -22910890.728 10 0 59230 67500.00000 0 4443468.368 -11802916.911 -22140431.747 10 0 59230 68400.00000 0 6939786.968 -12748767.013 -20938606.973 10 0 59230 69300.00000 0 9198405.794 -13813180.993 -19328688.897 10 0 59230 70200.00000 0 11172652.091 -14945575.388 -17341945.718 10 0 59230 71100.00000 0 12827242.518 -16088953.312 -15017035.559 10 0 59230 72000.00000 0 14139515.666 -17182356.289 -12399251.467 10 0 59230 72900.00000 0 15100135.956 -18163504.739 -9539631.925 10 0 59230 73800.00000 0 15713239.624 -18971514.297 -6493954.713 10 0 59230 74700.00000 0 15996017.388 -19549571.574 -3321634.809 10 0 59230 75600.00000 0 15977752.796 -19847454.504 -84549.213 10 0 59230 76500.00000 0 15698358.698 -19823789.039 3154186.719 10 0 59230 77400.00000 0 15206475.931 -19447945.434 6331465.638 10 0 59230 78300.00000 0 14557217.039 -18701493.062 9385431.257 10 0 59230 79200.00000 0 13809652.891 -17579151.924 12256692.356 10 0 59230 80100.00000 0 13024150.620 -16089200.901 14889482.920 10 0 59230 81000.00000 0 12259677.061 -14253326.164 17232745.290 10 0 59230 81900.00000 0 11571182.652 -12105917.006 19241115.338 10 0 59230 82800.00000 0 11007176.476 -9692839.747 20875791.050 10 0 59230 83700.00000 0 10607594.273 -7069742.007 22105268.893 10 0 59230 84600.00000 0 10402048.134 -4299958.808 22905935.239 10 0 59230 85500.00000 0 10408529.995 -1452108.154 23262503.166 10 0 59231 0.00000 0 10632621.590 1402524.197 23168288.114 10 0 59231 900.00000 0 11067242.544 4192703.114 22625318.744 10 0 59231 1800.00000 0 11692944.736 6849954.099 21644282.547 10 0 59231 2700.00000 0 12478740.837 9311154.229 20244308.099 10 0 59231 3600.00000 0 13383430.140 11520899.520 18452589.062 10 0 59231 4500.00000 0 14357366.974 13433552.127 16303857.220 10 0 59231 5400.00000 0 15344597.556 15014885.203 13839714.512 10 0 59231 6300.00000 0 16285276.657 16243259.134 11107836.207 10 0 59231 7200.00000 0 17118263.772 17110281.954 8161059.731 10 0 59231 8100.00000 0 17783791.077 17620927.855 5056375.542 10 0 59231 9000.00000 0 18226092.274 17793109.694 1853838.299 10 0 59231 9900.00000 0 18395882.750 17656723.727 -1384581.761 10 0 59231 10800.00000 0 18252587.264 17252206.539 -4596186.138 10 0 59231 11700.00000 0 17766221.485 16628664.265 -7718752.098 10 0 59231 12600.00000 0 16918847.609 15841651.969 -10691730.735 10 0 59231 13500.00000 0 15705541.693 14950695.820 -13457416.414 10 0 59231 14400.00000 0 14134830.252 14016661.511 -15962065.263 10 0 59231 15300.00000 0 12228575.595 13099079.152 -18156941.008 10 0 59231 16200.00000 0 10021312.185 12253536.983 -19999267.763 10 0 59231 17100.00000 0 7559059.060 11529253.663 -21453070.946 10 0 59231 18000.00000 0 4897655.416 10966931.884 -22489889.370 10 0 59231 18900.00000 0 2100686.439 10596984.465 -23089343.933 10 0 59231 19800.00000 0 -762916.178 10438208.847 -23239550.920 10 0 59231 20700.00000 0 -3621500.419 10496967.207 -22937370.703 10 0 59231 21600.00000 0 -6403438.449 10766908.295 -22188485.808 10 0 59231 22500.00000 0 -9039875.490 11229244.225 -21007305.492 10 0 59231 23400.00000 0 -11467368.335 11853571.880 -19416697.479 10 0 59231 24300.00000 0 -13630303.000 12599205.292 -17447550.947 10 0 59231 25200.00000 0 -15482989.860 13416963.255 -15138178.448 10 0 59231 26100.00000 0 -16991347.883 14251336.635 -12533567.961 10 0 59231 27000.00000 0 -18134106.900 15042943.135 -9684499.653 10 0 59231 27900.00000 0 -18903477.315 15731164.566 -6646545.012 10 0 59231 28800.00000 0 -19305259.355 16256853.429 -3478968.907 10 0 59231 29700.00000 0 -19358388.255 16564992.455 -243557.373 10 0 59231 30600.00000 0 -19093935.985 16607192.673 2996604.379 10 0 59231 31500.00000 0 -18553613.638 16343922.605 6178377.936 10 0 59231 32400.00000 0 -17787840.031 15746373.004 9239815.637 10 0 59231 33300.00000 0 -16853460.537 14797877.489 12121376.711 10 0 59231 34200.00000 0 -15811214.782 13494828.835 14767090.710 10 0 59231 35100.00000 0 -14723062.073 11847052.546 17125645.002 10 0 59231 36000.00000 0 -13649478.737 9877622.566 19151375.225 10 0 59231 36900.00000 0 -12646841.945 7622127.792 20805139.962 10 0 59231 37800.00000 0 -11765010.070 5127420.982 22055063.860 10 0 59231 38700.00000 0 -11045200.461 2449903.056 22877136.335 10 0 59231 39600.00000 0 -10518252.382 -346585.186 23255656.039 10 0 59231 40500.00000 0 -10203346.109 -3193176.242 23183514.416 10 0 59231 41400.00000 0 -10107229.844 -6018594.362 22662314.626 10 0 59231 42300.00000 0 -10223984.835 -8751871.610 21702325.054 10 0 59231 43200.00000 0 -10535336.771 -11325050.563 20322269.474 10 0 59231 44100.00000 0 -11011499.082 -13675763.604 18548958.553 10 0 59231 45000.00000 0 -11612512.040 -15749583.952 16416770.052 10 0 59231 45900.00000 0 -12290021.306 -17502053.174 13966987.475 10 0 59231 46800.00000 0 -12989421.638 -18900303.092 11247009.259 10 0 59231 47700.00000 0 -13652276.531 -19924206.399 8309442.844 10 0 59231 48600.00000 0 -14218913.136 -20567009.529 5211099.975 10 0 59231 49500.00000 0 -14631084.472 -20835422.339 2011911.357 10 0 59231 50400.00000 0 -14834587.871 -20749161.263 -1226219.491 10 0 59231 51300.00000 0 -14781730.162 -20339965.090 -4440602.140 10 0 59231 52200.00000 0 -14433535.988 -19650124.145 -7568962.968 10 0 59231 53100.00000 0 -13761605.995 -18730583.896 -10550644.016 10 0 59231 54000.00000 0 -12749545.741 -17638701.709 -13327774.330 10 0 59231 54900.00000 0 -11393903.672 -16435750.094 -15846391.447 10 0 59231 55800.00000 0 -9704576.705 -15184270.565 -18057491.215 10 0 59231 56700.00000 0 -7704663.912 -13945388.763 -19917985.569 10 0 59231 57600.00000 0 -5429771.623 -12776203.388 -21391549.286 10 0 59231 58500.00000 0 -2926796.276 -11727358.806 -22449338.712 10 0 59231 59400.00000 0 -252233.157 -10840903.768 -23070567.770 10 0 59231 60300.00000 0 2529920.821 -10148527.032 -23242929.107 10 0 59231 61200.00000 0 5350584.691 -9670245.113 -22962851.062 10 0 59231 62100.00000 0 8138231.988 -9413598.552 -22235584.228 10 0 59231 63000.00000 0 10821641.159 -9373391.751 -21075114.610 10 0 59231 63900.00000 0 13332643.203 -9531988.453 -19503903.820 10 0 59231 64800.00000 0 15608751.694 -9860151.243 -17552460.246 10 0 59231 65700.00000 0 17595564.668 -10318390.113 -15258748.665 10 0 59231 66600.00000 0 19248836.982 -10858763.090 -12667449.373 10 0 59231 67500.00000 0 20536135.646 -11427052.208 -9829081.194 10 0 59231 68400.00000 0 21438008.061 -11965221.675 -6799005.931 10 0 59231 69300.00000 0 21948613.941 -12414052.570 -3636334.674 10 0 59231 70200.00000 0 22075794.745 -12715840.647 -402758.639 10 0 59231 71100.00000 0 21840578.717 -12817040.937 2838670.990 10 0 59231 72000.00000 0 21276143.925 -12670745.252 6024788.511 10 0 59231 72900.00000 0 20426285.125 -12238886.087 9093558.410 10 0 59231 73800.00000 0 19343451.392 -11494072.460 11985293.520 10 0 59231 74700.00000 0 18086439.647 -10420979.493 14643821.647 10 0 59231 75600.00000 0 16717843.419 -9017232.949 17017577.374 10 0 59231 76500.00000 0 15301365.985 -7293751.760 19060597.771 10 0 59231 77400.00000 0 13899111.972 -5274534.854 20733403.167 10 0 59231 78300.00000 0 12568971.532 -2995901.985 22003747.044 10 0 59231 79200.00000 0 11362206.398 -505221.046 22847222.055 10 0 59231 80100.00000 0 10321337.815 2140824.410 23247712.180 10 0 59231 81000.00000 0 9478423.056 4878355.139 23197684.218 10 0 59231 81900.00000 0 8853790.440 7638715.883 22698314.753 10 0 59231 82800.00000 0 8455283.549 10351094.981 21759451.693 10 0 59231 83700.00000 0 8278043.988 12945236.585 20399412.291 10 0 59231 84600.00000 0 8304839.924 15354134.727 18644622.246 10 0 59231 85500.00000 0 8506925.214 17516599.371 16529103.086 10 0 59232 0.00000 0 8845392.273 19379590.121 14093817.555 10 0 59232 900.00000 0 9272961.702 20900222.523 11385884.588 10 0 59232 1800.00000 0 9736133.800 22047365.848 8457679.029 10 0 59232 2700.00000 0 10177612.183 22802766.085 5365831.145 10 0 59232 3600.00000 0 10538898.586 23161649.849 2170144.875 10 0 59232 4500.00000 0 10762950.427 23132783.245 -1067545.783 10 0 59232 5400.00000 0 10796790.076 22737983.846 -4284561.188 10 0 59232 6300.00000 0 10593956.304 22011105.623 -7418579.395 10 0 59232 7200.00000 0 10116694.574 20996538.625 -10408835.728 10 0 59232 8100.00000 0 9337793.324 19747285.344 -13197296.001 10 0 59232 9000.00000 0 8241987.687 18322693.350 -15729780.934 10 0 59232 9900.00000 0 6826869.808 16785938.362 -17957019.999 10 0 59232 10800.00000 0 5103265.195 15201362.463 -19835614.171 10 0 59232 11700.00000 0 3095056.586 13631778.544 -21328888.581 10 0 59232 12600.00000 0 838459.885 12135853.826 -22407617.887 10 0 59232 13500.00000 0 -1619220.454 10765682.275 -23050609.606 10 0 59232 14400.00000 0 -4221307.281 9564648.170 -23245133.095 10 0 59232 15300.00000 0 -6903868.456 8565671.194 -22987184.731 10 0 59232 16200.00000 0 -9598149.836 7789907.595 -22281582.918 10 0 59232 17100.00000 0 -12233223.259 7245962.917 -21141889.769 10 0 59232 18000.00000 0 -14738739.499 6929650.346 -19590159.736 10 0 59232 18900.00000 0 -17047671.224 6824305.521 -17656518.958 10 0 59232 19800.00000 0 -19098930.829 6901644.876 -15378582.625 10 0 59232 20700.00000 0 -20839752.666 7123131.289 -12800721.233 10 0 59232 21600.00000 0 -22227738.925 7441788.699 -9973189.948 10 0 59232 22500.00000 0 -23232482.431 7804387.891 -6951138.442 10 0 59232 23400.00000 0 -23836697.542 8153909.345 -3793521.501 10 0 59232 24300.00000 0 -24036811.468 8432176.919 -561932.980 10 0 59232 25200.00000 0 -23842991.578 8582548.648 2680612.513 10 0 59232 26100.00000 0 -23278608.587 8552548.531 5870924.532 10 0 59232 27000.00000 0 -22379159.875 8296325.953 8946882.235 10 0 59232 27900.00000 0 -21190700.341 7776837.038 11848654.541 10 0 59232 28800.00000 0 -19767849.137 6967654.742 14519869.931 10 0 59232 29700.00000 0 -18171458.392 5854330.715 16908712.485 10 0 59232 30600.00000 0 -16466043.821 4435251.569 18968922.811 10 0 59232 31500.00000 0 -14717086.577 2721953.969 20660684.836 10 0 59232 32400.00000 0 -12988320.173 738886.034 21951382.428 10 0 59232 33300.00000 0 -11339116.029 -1477374.266 22816212.673 10 0 59232 34200.00000 0 -9822076.214 -3879410.328 23238645.715 10 0 59232 35100.00000 0 -8480932.406 -6410713.583 23210724.164 10 0 59232 36000.00000 0 -7348836.734 -9007812.973 22733198.120 10 0 59232 36900.00000 0 -6447113.500 -11602699.172 21815494.730 10 0 59232 37800.00000 0 -5784521.396 -14125443.881 20475524.097 10 0 59232 38700.00000 0 -5357054.684 -16506906.938 18739325.977 10 0 59232 39600.00000 0 -5148289.735 -18681420.506 16640564.365 10 0 59232 40500.00000 0 -5130260.950 -20589340.832 14219879.512 10 0 59232 41400.00000 0 -5264828.478 -22179363.456 11524109.193 10 0 59232 42300.00000 0 -5505480.126 -23410507.219 8605393.417 10 0 59232 43200.00000 0 -5799491.976 -24253685.942 5520178.665 10 0 59232 44100.00000 0 -6090357.460 -24692803.207 2328139.648 10 0 59232 45000.00000 0 -6320383.459 -24725325.057 -908961.732 10 0 59232 45900.00000 0 -6433344.844 -24362306.685 -4128459.310 10 0 59232 46800.00000 0 -6377086.160 -23627871.577 -7267985.580 10 0 59232 47700.00000 0 -6105961.016 -22558164.043 -10266671.998 10 0 59232 48600.00000 0 -5583006.068 -21199817.971 -13066324.013 10 0 59232 49500.00000 0 -4781757.140 -19608004.640 -15612548.389 10 0 59232 50400.00000 0 -3687629.583 -17844140.213 -17855810.982 10 0 59232 51300.00000 0 -2298802.810 -15973347.775 -19752404.390 10 0 59232 52200.00000 0 -626569.323 -14061779.301 -21265306.385 10 0 59232 53100.00000 0 1304869.103 -12173909.151 -22364911.867 10 0 59232 54000.00000 0 3459152.518 -10369912.094 -23029623.442 10 0 59232 54900.00000 0 5789032.587 -8703235.722 -23246288.210 10 0 59232 55800.00000 0 8238110.491 -7218469.346 -23010471.150 10 0 59232 56700.00000 0 10742972.489 -5949599.211 -22326558.587 10 0 59232 57600.00000 0 13235635.502 -4918723.952 -21207688.417 10 0 59232 58500.00000 0 15646201.376 -4135284.923 -19675507.177 10 0 59232 59400.00000 0 17905609.168 -3595844.346 -17759757.574 10 0 59232 60300.00000 0 19948370.012 -3284420.878 -15497703.572 10 0 59232 61200.00000 0 21715169.157 -3173368.436 -12933403.762 10 0 59232 62100.00000 0 23155225.062 -3224760.604 -10116847.054 10 0 59232 63000.00000 0 24228305.368 -3392221.059 -7102967.939 10 0 59232 63900.00000 0 24906314.020 -3623121.059 -3950561.463 10 0 59232 64800.00000 0 25174382.160 -3861049.003 -721120.399 10 0 59232 65700.00000 0 25031416.776 -4048445.223 2522381.094 10 0 59232 66600.00000 0 24490084.468 -4129288.128 5716731.677 10 0 59232 67500.00000 0 23576232.156 -4051715.740 8799728.887 10 0 59232 68400.00000 0 22327770.711 -3770469.767 11711401.145 10 0 59232 69300.00000 0 20793070.502 -3249057.495 14395180.635 10 0 59232 70200.00000 0 19028938.406 -2461539.306 16799003.532 10 0 59232 71100.00000 0 17098263.222 -1393866.164 18876316.099 10 0 59232 72000.00000 0 15067429.839 -44710.981 20586967.518 10 0 59232 72900.00000 0 13003611.512 1574240.461 21897973.237 10 0 59232 73800.00000 0 10972053.704 3438550.512 22784135.527 10 0 59232 74700.00000 0 9033462.548 5511830.848 23228510.996 10 0 59232 75600.00000 0 7241605.571 7747049.825 23222717.934 10 0 59232 76500.00000 0 5641222.834 10088291.316 22767079.379 10 0 59232 77400.00000 0 4266333.216 12472891.924 21870600.716 10 0 59232 78300.00000 0 3139003.808 14833868.398 20550783.482 10 0 59232 79200.00000 0 2268631.131 17102535.499 18833279.690 10 0 59232 80100.00000 0 1651761.836 19211206.924 16751393.676 10 0 59232 81000.00000 0 1272458.406 21095868.737 14345440.841 10 0 59232 81900.00000 0 1103193.124 22698715.917 11661975.047 10 0 59232 82800.00000 0 1106232.100 23970447.998 8752898.691 10 0 59232 83700.00000 0 1235450.983 24872229.605 5674471.501 10 0 59232 84600.00000 0 1438506.328 25377235.123 2486235.904 10 0 59232 85500.00000 0 1659271.834 25471713.476 -750121.378 10 0 59233 0.00000 0 1840437.594 25155528.665 -3971950.610 10 0 59233 900.00000 0 1926163.198 24442152.642 -7116841.764 10 0 59233 1800.00000 0 1864674.161 23358110.820 -10123825.057 10 0 59233 2700.00000 0 1610690.667 21941900.780 -12934547.991 10 0 59233 3600.00000 0 1127587.475 20242429.452 -15494405.489 10 0 59233 4500.00000 0 389191.776 18317031.730 -17753601.584 10 0 59233 5400.00000 0 -618857.758 16229152.425 -19668121.974 10 0 59233 6300.00000 0 -1898250.206 14045787.108 -21200598.260 10 0 59233 7200.00000 0 -3437678.517 11834787.963 -22321046.496 10 0 59233 8100.00000 0 -5213068.907 9662146.624 -23007465.018 10 0 59233 9000.00000 0 -7188356.783 7589367.268 -23246279.015 10 0 59233 9900.00000 0 -9316779.301 5671039.918 -23032622.093 10 0 59233 10800.00000 0 -11542632.890 3952715.734 -22370448.148 10 0 59233 11700.00000 0 -13803424.023 2469173.740 -21272470.094 10 0 59233 12600.00000 0 -16032324.470 1243152.228 -19759925.360 10 0 59233 13500.00000 0 -18160828.827 284598.534 -17862171.598 10 0 59233 14400.00000 0 -20121502.975 -409530.999 -15616119.551 10 0 59233 15300.00000 0 -21850707.512 -854912.473 -13065513.597 10 0 59233 16200.00000 0 -23291180.852 -1078952.877 -10260073.866 10 0 59233 17100.00000 0 -24394372.180 -1119384.591 -7254516.995 10 0 59233 18000.00000 0 -25122424.837 -1022416.734 -4107475.541 10 0 59233 18900.00000 0 -25449725.618 -840523.558 -880338.408 10 0 59233 19800.00000 0 -25363954.110 -629965.707 2363963.479 10 0 59233 20700.00000 0 -24866587.766 -448151.725 5562200.663 10 0 59233 21600.00000 0 -23972841.989 -350953.940 8652091.775 10 0 59233 22500.00000 0 -22711048.868 -390094.453 11573527.383 10 0 59233 23400.00000 0 -21121502.293 -610713.509 14269745.882 10 0 59233 24300.00000 0 -19254819.844 -1049224.173 16688437.856 10 0 59233 25200.00000 0 -17169892.090 -1731544.384 18782757.275 10 0 59233 26100.00000 0 -14931506.926 -2671780.869 20512220.289 10 0 59233 27000.00000 0 -12607749.599 -3871419.761 21843475.258 10 0 59233 27900.00000 0 -10267287.540 -5319057.165 22750930.558 10 0 59233 28800.00000 0 -7976653.225 -6990680.021 23217229.765 10 0 59233 29700.00000 0 -5797637.296 -8850484.712 23233566.953 10 0 59233 30600.00000 0 -3784898.823 -10852198.751 22799837.836 10 0 59233 31500.00000 0 -1983890.028 -12940850.212 21924625.448 10 0 59233 32400.00000 0 -429179.202 -15054911.523 20625021.867 10 0 59233 33300.00000 0 856761.068 -17128729.175 18926290.210 10 0 59233 34200.00000 0 1864252.456 -19095139.325 16861373.732 10 0 59233 35100.00000 0 2596569.428 -20888161.905 14470261.322 10 0 59233 36000.00000 0 3069553.011 -22445662.644 11799221.027 10 0 59233 36900.00000 0 3310697.168 -23711873.616 8899915.533 10 0 59233 37800.00000 0 3357746.817 -24639668.568 5828415.537 10 0 59233 38700.00000 0 3256866.466 -25192499.108 2644128.778 10 0 59233 39600.00000 0 3060456.156 -25345911.384 -591335.701 10 0 59233 40500.00000 0 2824706.042 -25088579.965 -3815347.303 10 0 59233 41400.00000 0 2606991.995 -24422815.188 -6965455.812 10 0 59233 42300.00000 0 2463221.390 -23364521.797 -9980592.961 10 0 59233 43200.00000 0 2445240.709 -21942609.307 -12802250.948 10 0 59233 44100.00000 0 2598414.356 -20197877.122 -15375615.441 10 0 59233 45000.00000 0 2959477.328 -18181419.345 -17650631.139 10 0 59233 45900.00000 0 3554753.341 -15952614.220 -19582979.165 10 0 59233 46800.00000 0 4398815.123 -13576780.617 -21134947.021 10 0 59233 47700.00000 0 5493645.305 -11122598.143 -22276173.660 10 0 59233 48600.00000 0 6828335.668 -8659397.551 -22984254.518 10 0 59233 49500.00000 0 8379340.046 -6254433.874 -23245193.843 10 0 59233 50400.00000 0 10111272.862 -3970255.909 -23053694.427 10 0 59233 51300.00000 0 11978222.292 -1862281.924 -22413277.900 10 0 59233 52200.00000 0 13925525.070 23316.827 -21336231.975 10 0 59233 53100.00000 0 15891929.984 1651335.730 -19843384.378 10 0 59233 54000.00000 0 17812060.257 2998787.108 -17963706.746 10 0 59233 54900.00000 0 19619071.718 4055628.455 -15733755.232 10 0 59233 55800.00000 0 21247394.633 4824937.867 -13196958.217 10 0 59233 56700.00000 0 22635443.082 5322529.664 -10402764.829 10 0 59233 57600.00000 0 23728176.577 5576027.211 -7405671.208 10 0 59233 58500.00000 0 24479404.599 5623433.378 -4264144.388 10 0 59233 59400.00000 0 24853735.610 5511260.850 -1039466.088 10 0 59233 60300.00000 0 24828087.327 5292303.611 2205479.503 10 0 59233 61200.00000 0 24392693.967 5023146.305 5407448.362 10 0 59233 62100.00000 0 23551568.011 4761519.439 8504083.690 10 0 59233 63000.00000 0 22322397.580 4563614.678 11435141.486 10 0 59233 63900.00000 0 20735884.879 4481475.750 14143669.368 10 0 59233 64800.00000 0 18834554.983 4560576.694 16577115.005 10 0 59233 65700.00000 0 16671086.622 4837690.516 18688342.390 10 0 59233 66600.00000 0 14306236.541 5339138.280 20436536.587 10 0 59233 67500.00000 0 11806445.531 6079491.978 21787980.435 10 0 59233 68400.00000 0 9241226.871 7060784.899 22716689.597 10 0 59233 69300.00000 0 6680446.206 8272261.580 23204895.401 10 0 59233 70200.00000 0 4191605.500 9690676.748 23243368.063 10 0 59233 71100.00000 0 1837242.650 11281129.901 22831575.890 10 0 59233 72000.00000 0 -327447.037 12998400.056 21977679.006 10 0 59233 72900.00000 0 -2256671.130 14788724.873 20698359.009 10 0 59233 73800.00000 0 -3915699.156 16591950.349 19018488.635 10 0 59233 74700.00000 0 -5282054.135 18343962.204 16970648.165 10 0 59233 75600.00000 0 -6346189.500 19979298.808 14594497.725 10 0 59233 76500.00000 0 -7111625.351 21433838.072 11936017.010 10 0 59233 77400.00000 0 -7594539.938 22647447.591 9046626.236 10 0 59233 78300.00000 0 -7822834.601 23566488.761 5982204.142 10 0 59233 79200.00000 0 -7834711.831 24146071.255 2802020.753 10 0 59233 80100.00000 0 -7676826.172 24351964.245 -432395.655 10 0 59233 81000.00000 0 -7402085.296 24162084.528 -3658436.627 10 0 59233 81900.00000 0 -7067193.228 23567498.889 -6813614.916 10 0 59233 82800.00000 0 -6730038.539 22572897.815 -9836766.578 10 0 59233 83700.00000 0 -6447037.085 21196519.361 -12669231.168 10 0 59233 84600.00000 0 -6270541.080 19469524.587 -15255987.515 10 0 59233 85500.00000 0 -6246423.871 17434848.792 -17546723.096 99